User: anonymous   Login
Location: Bothell
(47.7630°N, 122.2040°W)
Time: 19:30:51
(UTC-07:00)
Language:

Oscar 16 - Orbit

View from above orbital plane
View from above orbital plane
View from above satellite
View from above satellite

Ground track
Ground track

The orbit data is extracted from the following two-line orbital elements,

1 20439U 90005D   17085.83631946 +.00000027 +00000-0 +26073-4 0  9994
2 20439 098.6030 025.7277 0011762 049.4362 023.4199 14.32672398419615
Epoch (UTC): 26 March 2017 20:04:18
Eccentricity: 0.0011762
inclination: 98.6030°
perigee height: 774 km
apogee height: 791 km
right ascension of ascending node: 25.7277°
argument of perigee: 49.4362°
revolutions per day: 14.32672398
mean anomaly at epoch: 23.4199°
orbit number at epoch: 41961

The dashed part of the orbit path shows where the satellite is in the earth's shadow,  

DLR